BAW116 LIEE-LIRN

Flight info

Callsign BAW116
Flight time N/A
Altitude 18000
Route KOVAS Q125 LABOM DCT OKIDO DCT POKAV DCT ROTUN DCT PNZ
Aircraft A320/M-SDE3FGHIRWY/LB1

Departure

Time 2026-05-07 17:18
Airport Cagliari Elmas Airport (LIEE)

Arrival

Time N/A
Airport Naples International Airport (LIRN)
Time Latitude Longitude Altitude Speed Heading
2026-05-07 17:06 39.25337 9.05841 15 ft 0 kts 142°
2026-05-07 17:10 39.25345 9.05833 16 ft 3 kts 143°
2026-05-07 17:10 39.25361 9.05818 17 ft 3 kts 149°
2026-05-07 17:11 39.25379 9.05805 16 ft 3 kts 160°
2026-05-07 17:11 39.25398 9.05799 15 ft 3 kts 188°
2026-05-07 17:11 39.25411 9.05804 15 ft 1 kts 230°
2026-05-07 17:11 39.25412 9.05806 15 ft 0 kts 231°
2026-05-07 17:13 39.25402 9.05790 17 ft 5 kts 231°
2026-05-07 17:13 39.25382 9.05758 15 ft 5 kts 231°
2026-05-07 17:14 39.25361 9.05722 15 ft 5 kts 231°
2026-05-07 17:14 39.25345 9.05691 15 ft 4 kts 246°
2026-05-07 17:14 39.25350 9.05653 15 ft 5 kts 305°
2026-05-07 17:14 39.25377 9.05612 15 ft 7 kts 305°
2026-05-07 17:15 39.25395 9.05549 16 ft 8 kts 277°
2026-05-07 17:15 39.25408 9.05459 16 ft 14 kts 285°
2026-05-07 17:15 39.25455 9.05352 15 ft 13 kts 309°
2026-05-07 17:15 39.25524 9.05266 15 ft 18 kts 317°
2026-05-07 17:16 39.25647 9.05125 15 ft 25 kts 318°
2026-05-07 17:16 39.25767 9.04975 15 ft 21 kts 300°
2026-05-07 17:16 39.25749 9.04855 16 ft 5 kts 222°
2026-05-07 17:16 39.25717 9.04849 17 ft 7 kts 184°
2026-05-07 17:17 39.25671 9.04847 17 ft 6 kts 180°
2026-05-07 17:17 39.25634 9.04866 18 ft 5 kts 142°
2026-05-07 17:17 39.25628 9.04872 17 ft 0 kts 139°
2026-05-07 17:17 39.25627 9.04873 17 ft 1 kts 139°
2026-05-07 17:18 39.25468 9.05059 15 ft 73 kts 138°
2026-05-07 17:18 39.24896 9.05721 17 ft 143 kts 138°
2026-05-07 17:18 39.24047 9.06757 200 ft 187 kts 135°
2026-05-07 17:18 39.23044 9.07968 721 ft 208 kts 134°
2026-05-07 17:19 39.21931 9.09252 1363 ft 218 kts 135°